EW1458 Weather Reports


Display with metric or nautical units.
time (UTC)temp
F
wind
direction
speed
MPH
gust
MPH
rain 1hr
in
rain 24hr
in
rain mn
in
humidity
%
barometer
mb
20260504190512 56 255 14.0 28.0 0.00 1.24 0.02 53 1003.5
20260504190011 56 234 15.0 25.0 0.00 1.25 0.02 52 1003.5
20260504185510 56 247 12.0 28.0 0.00 1.26 0.02 52 1003.5
20260504185011 55 256 16.0 28.0 0.00 1.26 0.02 53 1003.3
20260504184511 56 242 22.0 25.0 0.00 1.27 0.02 50 1003.5
20260504184010 56 248 10.0 28.0 0.00 1.29 0.02 52 1003.5
20260504183508 55 240 15.0 28.0 0.00 1.29 0.02 51 1003.4
20260504183006 55 232 17.0 28.0 0.00 1.31 0.02 50 1003.8
20260504182505 55 251 15.0 25.0 0.00 1.32 0.02 49 1003.8
20260504182002 56 244 12.0 29.0 0.00 1.32 0.02 49 1003.7
20260504181500 56 235 19.0 29.0 0.00 1.33 0.02 47 1003.6
20260504181001 56 231 18.0 33.0 0.00 1.34 0.02 46 1003.8
20260504180459 56 256 13.0 33.0 0.00 1.36 0.02 45 1004.1
20260504175958 56 228 7.0 30.0 0.00 1.36 0.02 44 1003.7
20260504175458 57 237 11.0 26.0 0.00 1.36 0.02 39 1003.7
20260504174955 57 256 15.0 26.0 0.00 1.37 0.02 38 1003.7
20260504174453 57 194 11.0 26.0 0.00 1.38 0.02 42 1003.4
20260504173953 57 238 16.0 27.0 0.00 1.39 0.02 39 1003.7
20260504173453 58 242 9.0 27.0 0.00 1.40 0.02 42 1003.8
20260504172952 57 222 8.0 24.0 0.00 1.42 0.02 42 1003.7
20260504172451 57 219 6.0 24.0 0.00 1.43 0.02 39 1003.7
20260504171951 58 247 15.0 21.0 0.00 1.44 0.02 39 1003.8
20260504170949 57 252 11.0 25.0 0.00 1.47 0.02 40 1003.7
20260504170448 57 216 18.0 25.0 0.00 1.49 0.02 39 1003.7
20260504160432 56 240 13.0 20.0 0.00 1.87 0.02 41 1004.3
20260504150920 53 221 20.0 25.0 0.00 2.23 0.02 37 1004.6
20260504150418 52 244 11.0 25.0 0.00 2.24 0.02 40 1004.7
20260504140916 49 268 15.0 29.0 0.00 2.36 0.02 49 1004.9
20260504140415 49 266 12.0 29.0 0.00 2.38 0.02 54 1004.9
20260504130403 46 269 13.0 20.0 0.00 2.40 0.02 64 1004.6
20260504110335 41 271 14.0 18.0 0.00 2.40 0.02 79 1002.7
20260504100321 41 227 12.0 16.0 0.00 2.41 0.02 84 1001.7
20260504081805 42 270 11.0 17.0 0.00 2.41 0.02 90 999.2
20260504081306 42 290 12.0 17.0 0.00 2.41 0.02 90 999.4
20260504080804 42 260 11.0 18.0 0.00 2.41 0.02 90 999.3
20260504080304 42 276 12.0 18.0 0.00 2.41 0.02 90 999.2
20260504070258 42 291 10.0 16.0 0.00 2.41 0.02 90 998.7
20260504050253 40 274 8.0 18.0 0.00 2.41 0.02 94 997.0
20260504045752 40 265 6.0 18.0 0.00 2.41 0.02 94 997.0
20260504045253 40 230 12.0 15.0 0.00 2.41 0.02 94 997.0
20260504044804 40 293 8.0 21.0 0.01 2.41 0.02 93 996.9
20260504044249 40 295 10.0 23.0 0.01 2.41 0.02 92 996.8
20260504043749 40 279 12.0 23.0 0.01 2.41 0.02 92 996.9
20260504043250 39 285 10.0 25.0 0.01 2.41 0.02 93 996.8
20260504042749 39 299 13.0 25.0 0.01 2.41 0.02 92 996.8
20260504042249 39 257 11.0 22.0 0.01 2.41 0.02 92 996.8
20260504041749 39 292 16.0 21.0 0.01 2.41 0.02 93 996.7
20260504040750 39 303 9.0 21.0 0.01 2.41 0.02 93 996.5
20260504040250 39 295 17.0 19.0 0.02 2.41 0.02 93 996.4
20260504035749 39 292 7.0 19.0 0.02 2.41 0.02 93 996.6
20260504035248 39 294 8.0 19.0 0.02 2.41 0.02 93 996.3
20260504034748 39 297 14.0 19.0 0.02 2.40 0.01 93 996.1
20260504034247 39 276 8.0 20.0 0.03 2.40 0.01 93 996.1
20260504033747 39 272 7.0 25.0 0.05 2.40 0.01 93 995.9
20260504033247 39 302 18.0 30.0 0.06 2.40 0.01 92 995.9
20260504032746 39 298 18.0 30.0 0.07 2.40 0.01 92 995.9
20260504032246 39 257 11.0 30.0 0.08 2.40 0.01 92 995.6
20260504031746 39 279 10.0 30.0 0.08 2.40 0.01 92 995.7
20260504030745 39 288 12.0 32.0 0.10 2.40 0.01 92 995.4
20260504030245 39 305 14.0 30.0 0.09 2.39 0.00 92 995.2
20260504025745 39 291 13.0 30.0 0.11 2.39 2.39 92 995.1
20260504025246 39 302 18.0 23.0 0.12 2.39 2.39 93 995.0
20260504024744 39 297 18.0 23.0 0.12 2.38 2.38 93 995.0
20260504024240 39 299 13.0 23.0 0.13 2.37 2.37 93 995.1
20260504023240 39 292 18.0 29.0 0.13 2.34 2.34 92 994.8
20260504022740 39 272 10.0 24.0 0.14 2.33 2.33 93 994.7
20260504021738 38 299 11.0 26.0 0.17 2.32 2.32 93 994.4
20260504021251 38 304 17.0 26.0 0.17 2.31 2.31 92 994.3
20260504020735 38 303 17.0 23.0 0.17 2.30 2.30 93 994.2
20260504020234 38 288 14.0 25.0 0.17 2.30 2.30 93 994.2
20260504015727 38 312 18.0 30.0 0.18 2.28 2.28 93 994.2
20260504015225 38 306 13.0 30.0 0.18 2.27 2.27 93 994.2
20260504013721 37 292 15.0 26.0 0.17 2.22 2.22 92 993.9
20260504013220 37 302 20.0 31.0 0.18 2.21 2.21 92 993.7
20260504012216 37 308 17.0 32.0 0.18 2.17 2.17 91 993.8
20260504011714 38 295 24.0 32.0 0.17 2.15 2.16 90 993.6
20260504011214 38 299 20.0 31.0 0.18 2.14 2.14 88 993.5
20260504010713 38 302 17.0 32.0 0.18 2.13 2.13 88 993.3
20260504010207 38 297 24.0 35.0 0.18 2.12 2.12 89 993.3
20260504005708 38 306 24.0 35.0 0.18 2.10 2.10 89 993.1
20260504004707 37 299 18.0 39.0 0.19 2.08 2.08 92 992.8
20260504004205 36 288 17.0 30.0 0.20 2.06 2.06 93 992.8
20260504003704 36 296 20.0 38.0 0.20 2.06 2.06 93 993.0
20260504003204 36 300 14.0 38.0 0.20 2.03 2.03 92 992.8
20260504002703 36 282 9.0 29.0 0.19 2.01 2.01 91 992.5
20260504002159 36 302 9.0 28.0 0.19 1.99 1.99 89 992.5
20260504001158 37 297 26.0 30.0 0.19 1.96 1.96 88 992.2
20260504000658 37 310 5.0 30.0 0.19 1.95 1.95 88 992.1
20260503235658 37 294 10.0 36.0 0.19 1.92 1.92 89 992.0
20260503235157 37 303 17.0 36.0 0.19 1.90 1.91 89 991.8
20260503234156 36 300 9.0 24.0 0.18 1.86 1.86 93 991.9
20260503233153 36 298 8.0 21.0 0.18 1.83 1.83 92 991.9
20260503232652 36 283 13.0 21.0 0.20 1.81 1.81 91 991.8
20260503232151 37 288 2.0 19.0 0.20 1.79 1.79 90 991.7
20260503231650 38 270 5.0 25.0 0.20 1.78 1.78 89 991.9
20260503231147 38 307 17.0 29.0 0.19 1.75 1.77 89 991.6
20260503230649 37 305 12.0 29.0 0.20 1.75 1.75 91 991.6
20260503230145 37 301 18.0 28.0 0.19 1.74 1.74 93 991.4
20260503225644 37 286 6.0 25.0 0.19 1.73 1.73 94 991.4
20260503225144 37 219 4.0 25.0 0.18 1.71 1.71 94 991.4
20260503223639 38 310 10.0 16.0 0.18 1.66 1.66 93 991.3
20260503223138 39 344 6.0 16.0 0.18 1.64 1.64 94 991.3
20260503221638 39 38 3.0 14.0 0.16 1.57 1.57 94 991.0
20260503221136 39 44 6.0 18.0 0.16 1.56 1.56 94 991.0
20260503220633 39 54 7.0 21.0 0.16 1.55 1.56 94 991.0
20260503220129 39 25 8.0 21.0 0.16 1.55 1.55 94 991.0
20260503215626 39 55 13.0 21.0 0.16 1.54 1.54 94 990.9
20260503215126 39 34 11.0 23.0 0.16 1.53 1.53 94 990.9
20260503214626 40 42 10.0 23.0 0.13 1.50 1.52 94 991.3
20260503214126 40 37 7.0 22.0 0.13 1.49 1.49 94 991.4
20260503213626 40 39 9.0 22.0 0.12 1.48 1.48 94 991.5
20260503213126 40 83 3.0 20.0 0.10 1.46 1.46 94 991.7
20260503212626 40 319 8.0 14.0 0.09 1.44 1.44 94 991.9
20260503212126 40 248 7.0 15.0 0.09 1.42 1.42 95 991.8
20260503211626 40 42 7.0 15.0 0.09 1.42 1.42 95 991.6
20260503211126 40 352 4.0 15.0 0.09 1.41 1.41 94 991.7
20260503210625 40 30 6.0 17.0 0.07 1.39 1.39 94 991.9
20260503210122 40 77 4.0 17.0 0.09 1.39 1.39 94 991.9
20260503205622 40 136 3.0 19.0 0.08 1.38 1.38 94 992.0
20260503205122 40 349 3.0 19.0 0.07 1.37 1.37 94 991.9
20260503204116 40 19 4.0 17.0 0.08 1.36 1.36 94 992.0
20260503203616 41 67 5.0 18.0 0.09 1.36 1.36 94 992.0
20260503202615 41 288 4.0 13.0 0.09 1.35 1.35 94 992.6
20260503202112 41 66 8.0 12.0 0.09 1.33 1.33 94 992.6
20260503201610 41 108 5.0 12.0 0.12 1.33 1.33 94 992.5
20260503201111 41 345 3.0 12.0 0.12 1.32 1.32 94 992.8
20260503195611 41 95 4.0 17.0 0.16 1.31 1.31 94 993.5
20260503195110 41 27 2.0 17.0 0.15 1.30 1.30 93 993.5
20260503194607 41 306 4.0 22.0 0.14 1.29 1.29 93 993.3
20260503194108 41 28 8.0 22.0 0.16 1.29 1.29 93 993.3
20260503193608 42 57 6.0 19.0 0.16 1.28 1.28 93 993.2
20260503193108 42 25 4.0 16.0 0.16 1.26 1.26 93 993.6
20260503192604 42 48 9.0 19.0 0.16 1.25 1.25 94 993.7
20260503192116 42 80 6.0 19.0 0.14 1.24 1.24 94 993.5
20260503191602 42 71 2.0 15.0 0.13 1.21 1.21 94 993.9
20260503191059 42 42 6.0 15.0 0.13 1.20 1.20 94 994.2